QPF
0.00 0.00 0.00 0.00 0.00 0.00 0.00 0.00 0.00 0.00 0.00 0.00 0.00 0.00 0.00 0.00 0.00 0.00 0.00 0.00 0.00 0.00 0.00 0.00 0.00 0.00 0.00 0.00 0.00 0.00 0.00 0.00 0.00 0.01 0.00 0.00 0.00 0.00 0.00 0.00 0.00 0.00 0.00 0.00 0.00 0.00 0.00 0.00 0.00
0.00 0.00 0.00 0.00 0.00 0.00 0.00 0.00 0.00 0.00 0.00 0.00 0.00 0.00 0.00 0.00 0.00 0.00 0.00 0.00 0.00 0.00 0.00 0.00 0.00 0.00 0.00 0.00 0.00 0.00 0.00 0.00 0.00 0.00 0.00 0.00 0.00 0.00 0.00 0.00 0.00 0.00 0.00 0.00 0.00 0.00 0.00 0.00 0.00
0.00 0.00 0.00 0.00 0.00 0.00 0.00 0.00 0.00 0.00 0.00 0.00 0.00 0.00 0.00 0.00 0.00 0.00 0.00 0.00 0.00 0.00 0.00 0.00 0.00 0.00 0.00 0.00 0.00 0.00 0.00 0.00 0.00 0.00 0.00 0.00 0.00 0.00 0.00 0.00 0.00 0.00 0.00 0.00 0.00 0.00 0.00 0.00 0.00
0.00 0.00 0.00 0.00 0.00 0.00 0.00 0.00 0.00 0.00 0.00 0.00 0.00 0.00 0.00 0.00 0.00 0.00 0.00 0.00 0.00 0.00 0.00 0.00 0.00 0.00 0.00 0.00 0.00 0.00 0.00 0.00 0.00 0.00 0.00 0.00 0.00 0.00 0.00 0.00 0.00 0.00 0.00 0.00 0.00 0.00 0.00 0.00 0.00
0.00 0.00 0.00 0.00 0.00 0.00 0.00 0.00 0.00 0.00 0.00 0.00 0.00 0.00 0.00 0.00 0.00 0.00 0.00 0.00 0.00 0.00 0.00 0.00 0.00 0.00 0.00 0.00 0.00 0.00 0.00 0.00 0.00 0.00 0.00 0.00 0.00 0.00 0.00 0.00 0.00 0.00 0.00 0.00 0.00 0.00 0.00 0.00 0.00
0.00 0.00 0.00 0.00 0.00 0.00 0.00 0.00 0.00 0.00 0.00 0.00 0.00 0.00 0.00 0.00 0.00 0.00 0.00 0.00 0.00 0.00 0.00 0.00 0.00 0.00 0.00 0.00 0.00 0.00 0.00 0.00 0.00 0.00 0.00 0.00 0.00 0.00 0.00 0.00 0.00 0.00 0.00 0.00 0.00 0.00 0.00 0.00 0.00
0.00 0.00 0.00 0.00 0.00 0.00 0.00 0.00 0.00 0.00 0.00 0.00 0.00 0.00 0.00 0.00 0.00 0.00 0.00 0.00 0.00 0.00 0.00 0.00 0.00 0.00 0.00 0.00 0.00 0.00 0.00 0.00 0.00 0.00 0.00 0.00 0.00 0.00 0.00 0.00 0.00 0.00 0.00 0.00 0.00 0.00 0.00 0.00 0.00
0.00 0.00 0.00 0.00 0.00 0.00 0.00 0.00 0.00 0.00 0.00 0.00 0.00 0.00 0.00 0.00 0.00 0.00 0.00 0.00 0.00 0.00 0.00 0.00 0.00 0.00 0.00 0.00 0.00 0.00 0.00 0.00 0.00 0.00 0.00 0.00 0.00 0.00 0.00 0.00 0.00 0.00 0.00 0.00 0.00 0.00 0.00 0.00 0.00
0.00 0.00 0.00 0.00 0.00 0.00 0.00 0.00 0.00 0.00 0.00 0.00 0.00 0.00 0.00 0.00 0.00 0.00 0.00 0.00 0.00 0.00 0.00 0.00 0.00 0.00 0.00 0.00 0.00 0.00 0.00 0.00 0.00 0.00 0.00 0.00 0.00 0.00 0.00 0.00 0.00 0.00 0.00 0.00 0.00 0.00 0.00 0.00 0.00
0.00 0.00 0.00 0.00 0.00 0.00 0.00 0.00 0.00 0.00 0.00 0.00 0.00 0.00 0.00 0.00 0.00 0.00 0.00 0.00 0.00 0.00 0.00 0.00 0.00 0.00 0.00 0.00 0.00 0.00 0.00 0.00 0.00 0.00 0.00 0.00 0.00 0.00 0.00 0.00 0.00 0.00 0.00 0.00 0.00 0.00 0.00 0.00 0.00
0.00 0.00 0.00 0.00 0.00 0.00 0.00 0.00 0.00 0.00 0.00 0.00 0.00 0.00 0.00 0.00 0.00 0.00 0.00 0.00 0.00 0.00 0.00 0.00 0.00 0.00 0.00 0.00 0.00 0.00 0.00 0.00 0.00 0.00 0.00 0.00 0.00 0.00 0.00 0.00 0.00 0.00 0.00 0.00 0.00 0.00 0.00 0.00 0.00
0.00 0.00 0.00 0.00 0.00 0.00 0.00 0.00 0.00 0.00 0.00 0.00 0.00 0.00 0.00 0.00 0.00 0.00 0.00 0.00 0.00 0.00 0.00 0.00 0.00 0.00 0.00 0.00 0.00 0.00 0.00 0.00 0.00 0.00 0.00 0.00 0.00 0.00 0.00 0.00 0.00 0.00 0.00 0.00 0.00 0.00 0.00 0.00 0.00
0.00 0.00 0.00 0.00 0.00 0.00 0.00 0.00 0.00 0.00 0.00 0.00 0.00 0.00 0.00 0.00 0.00 0.00 0.00 0.00 0.00 0.00 0.00 0.00 0.00 0.00 0.00 0.00 0.00 0.00 0.00 0.00 0.00 0.00 0.00 0.00 0.00 0.00 0.00 0.00 0.00 0.00 0.00 0.00 0.00 0.00 0.00 0.00 0.00
0.00 0.00 0.00 0.00 0.00 0.00 0.00 0.00 0.00 0.00 0.00 0.00 0.00 0.00 0.00 0.00 0.00 0.00 0.00 0.00 0.00 0.00 0.00 0.00 0.00 0.00 0.00 0.00 0.00 0.00 0.00 0.00 0.00 0.00 0.00 0.00 0.00 0.00 0.00 0.00 0.00 0.00 0.00 0.00 0.00 0.00 0.00 0.00 0.00
0.00 0.00 0.00 0.00 0.00 0.00 0.00 0.00 0.00 0.00 0.00 0.00 0.00 0.00 0.00 0.00 0.00 0.00 0.00 0.00 0.00 0.00 0.00 0.00 0.00 0.00 0.00 0.00 0.00 0.00 0.00 0.00 0.00 0.00 0.00 0.00 0.00 0.00 0.00 0.00 0.00 0.00 0.00 0.00 0.00 0.00 0.00 0.00 0.00
0.00 0.00 0.00 0.00 0.00 0.00 0.00 0.00 0.00 0.00 0.00 0.00 0.00 0.00 0.00 0.00 0.00 0.00 0.00 0.00 0.00 0.00 0.00 0.00 0.00 0.00 0.00 0.00 0.00 0.00 0.00 0.00 0.00 0.00 0.00 0.00 0.00 0.00 0.00 0.00 0.00 0.00 0.00 0.00 0.00 0.00 0.00 0.00 0.00
0.00 0.00 0.00 0.00 0.00 0.00 0.00 0.00 0.00 0.00 0.00 0.00 0.00 0.00 0.00 0.00 0.00 0.00 0.00 0.00 0.00 0.00 0.00 0.00 0.00 0.00 0.00 0.00 0.00 0.00 0.00 0.00 0.00 0.00 0.00 0.00 0.00 0.00 0.00 0.00 0.00 0.00 0.00 0.00 0.00 0.00 0.00 0.00 0.00
0.00 0.00 0.00 0.00 0.00 0.00 0.00 0.00 0.00 0.00 0.00 0.00 0.00 0.00 0.00 0.00 0.00 0.00 0.00 0.00 0.00 0.00 0.00 0.00 0.00 0.00 0.00 0.00 0.00 0.00 0.00 0.00 0.00 0.00 0.00 0.00 0.00 0.00 0.00 0.00 0.00 0.00 0.00 0.00 0.00 0.00 0.00 0.00 0.00
0.00 0.00 0.00 0.00 0.00 0.00 0.00 0.00 0.00 0.00 0.00 0.00 0.00 0.00 0.00 0.00 0.00 0.00 0.00 0.00 0.00 0.00 0.00 0.00 0.00 0.00 0.00 0.00 0.00 0.00 0.00 0.00 0.00 0.00 0.00 0.00 0.00 0.00 0.00 0.00 0.00 0.00 0.00 0.00 0.00 0.00 0.00 0.00 0.00
0.00 0.00 0.00 0.00 0.00 0.00 0.00 0.00 0.00 0.00 0.00 0.00 0.00 0.00 0.00 0.00 0.00 0.00 0.00 0.00 0.00 0.00 0.00 0.00 0.00 0.00 0.00 0.00 0.00 0.00 0.00 0.00 0.00 0.00 0.00 0.00 0.00 0.00 0.00 0.00 0.00 0.00 0.00 0.00 0.00 0.00 0.00 0.00 0.00
0.00 0.00 0.00 0.00 0.00 0.00 0.00 0.00 0.00 0.00 0.00 0.00 0.00 0.00 0.00 0.00 0.00 0.00 0.00 0.00 0.00 0.00 0.00 0.00 0.00 0.00 0.00 0.00 0.00 0.00 0.00 0.00 0.00 0.00 0.00 0.00 0.00 0.00 0.00 0.00 0.00 0.00 0.00 0.00 0.00 0.00 0.00 0.00 0.00
0.00 0.00 0.00 0.00 0.00 0.00 0.00 0.00 0.00 0.00 0.00 0.00 0.00 0.00 0.00 0.00 0.00 0.00 0.00 0.00 0.00 0.00 0.00 0.00 0.00 0.00 0.00 0.00 0.00 0.00 0.00 0.00 0.00 0.00 0.00 0.00 0.00 0.00 0.00 0.00 0.00 0.00 0.00 0.00 0.00 0.00 0.00 0.00 0.00
0.00 0.00 0.00 0.00 0.00 0.00 0.00 0.00 0.00 0.00 0.00 0.00 0.00 0.00 0.00 0.00 0.00 0.00 0.00 0.00 0.00 0.00 0.00 0.00 0.00 0.00 0.00 0.00 0.00 0.00 0.00 0.00 0.00 0.00 0.00 0.00 0.00 0.00 0.00 0.00 0.00 0.00 0.00 0.00 0.00 0.00 0.00 0.00 0.00
0.00 0.00 0.00 0.00 0.00 0.00 0.00 0.00 0.00 0.00 0.00 0.00 0.00 0.00 0.00 0.00 0.00 0.00 0.00 0.00 0.00 0.00 0.00 0.00 0.00 0.00 0.00 0.00 0.00 0.00 0.00 0.00 0.00 0.00 0.00 0.00 0.00 0.00 0.00 0.00 0.00 0.00 0.00 0.00 0.00 0.00 0.00 0.00 0.00
0.00 0.00 0.00 0.00 0.00 0.00 0.00 0.00 0.00 0.00 0.00 0.00 0.00 0.00 0.00 0.00 0.00 0.00 0.00 0.00 0.00 0.00 0.00 0.00 0.00 0.00 0.00 0.00 0.00 0.00 0.00 0.00 0.00 0.00 0.00 0.00 0.00 0.00 0.00 0.00 0.00 0.00 0.00 0.00 0.00 0.00 0.00 0.00 0.00
0.00 0.00 0.00 0.00 0.00 0.00 0.00 0.00 0.00 0.00 0.00 0.00 0.00 0.00 0.00 0.00 0.00 0.00 0.00 0.00 0.00 0.00 0.00 0.00 0.00 0.00 0.00 0.00 0.00 0.00 0.00 0.00 0.00 0.00 0.00 0.00 0.00 0.00 0.00 0.00 0.00 0.00 0.00 0.00 0.00 0.00 0.00 0.00 0.00
0.00 0.00 0.00 0.00 0.00 0.00 0.00 0.00 0.00 0.00 0.00 0.00 0.00 0.00 0.00 0.00 0.00 0.00 0.00 0.00 0.00 0.00 0.00 0.00 0.00 0.00 0.00 0.00 0.00 0.00 0.00 0.00 0.00 0.00 0.00 0.00 0.00 0.00 0.00 0.00 0.00 0.00 0.00 0.00 0.00 0.00 0.00 0.00 0.00
0.00 0.00 0.00 0.00 0.00 0.00 0.00 0.00 0.00 0.00 0.00 0.00 0.00 0.00 0.00 0.00 0.00 0.00 0.00 0.00 0.00 0.00 0.00 0.00 0.00 0.00 0.00 0.00 0.00 0.00 0.00 0.00 0.00 0.00 0.00 0.00 0.00 0.00 0.00 0.00 0.00 0.00 0.00 0.00 0.00 0.00 0.00 0.00 0.00
0.00 0.00 0.00 0.00 0.00 0.00 0.00 0.00 0.00 0.00 0.00 0.00 0.00 0.00 0.00 0.00 0.00 0.00 0.00 0.00 0.00 0.00 0.00 0.00 0.00 0.00 0.00 0.00 0.00 0.00 0.00 0.00 0.00 0.00 0.00 0.00 0.00 0.00 0.00 0.00 0.00 0.00 0.00 0.00 0.00 0.00 0.00 0.00 0.00
0.00 0.00 0.00 0.00 0.00 0.00 0.00 0.00 0.00 0.00 0.00 0.00 0.00 0.00 0.00 0.00 0.00 0.00 0.00 0.00 0.00 0.00 0.00 0.00 0.00 0.00 0.00 0.00 0.00 0.00 0.00 0.00 0.00 0.00 0.00 0.00 0.00 0.00 0.00 0.00 0.00 0.00 0.00 0.00 0.00 0.00 0.00 0.00 0.00
MSLP
1015.35 1016.13 1017.12 1018.17 1019.13 1019.86 1020.28 1020.36 1020.16 1019.77 1019.31 1018.90 1018.62 1018.50 1018.53 1018.65 1018.81 1018.94 1019.00 1019.01 1018.98 1018.98 1019.04 1019.20 1019.47 1019.82 1020.20 1020.57 1020.88 1021.10 1021.26 1021.37 1021.46 1021.58 1021.74 1021.94 1022.18 1022.41 1022.61 1022.75 1022.83 1022.84 1022.80 1022.74 1022.68 1022.61 1022.56 1022.50 1022.44
1015.82 1016.78 1017.87 1018.92 1019.77 1020.30 1020.48 1020.29 1019.84 1019.24 1018.64 1018.15 1017.85 1017.75 1017.82 1017.99 1018.19 1018.35 1018.44 1018.48 1018.49 1018.55 1018.69 1018.94 1019.31 1019.75 1020.21 1020.65 1021.01 1021.28 1021.46 1021.59 1021.70 1021.83 1022.01 1022.22 1022.46 1022.69 1022.89 1023.03 1023.10 1023.11 1023.08 1023.03 1022.98 1022.93 1022.90 1022.86 1022.82
1016.35 1017.43 1018.54 1019.51 1020.19 1020.50 1020.41 1019.99 1019.33 1018.59 1017.92 1017.42 1017.16 1017.13 1017.27 1017.51 1017.75 1017.94 1018.05 1018.11 1018.15 1018.25 1018.45 1018.77 1019.21 1019.72 1020.25 1020.73 1021.13 1021.43 1021.63 1021.78 1021.90 1022.04 1022.21 1022.42 1022.65 1022.87 1023.04 1023.16 1023.22 1023.22 1023.20 1023.17 1023.14 1023.13 1023.13 1023.13 1023.12
1016.91 1018.03 1019.09 1019.91 1020.39 1020.46 1020.14 1019.51 1018.72 1017.92 1017.25 1016.82 1016.66 1016.73 1016.96 1017.27 1017.55 1017.76 1017.88 1017.94 1018.00 1018.12 1018.35 1018.72 1019.20 1019.75 1020.30 1020.81 1021.22 1021.53 1021.75 1021.90 1022.03 1022.17 1022.34 1022.54 1022.75 1022.95 1023.10 1023.20 1023.24 1023.25 1023.24 1023.23 1023.23 1023.25 1023.30 1023.34 1023.38
1017.47 1018.56 1019.49 1020.14 1020.39 1020.24 1019.73 1018.97 1018.11 1017.33 1016.74 1016.43 1016.39 1016.58 1016.91 1017.27 1017.58 1017.79 1017.90 1017.95 1018.01 1018.14 1018.38 1018.76 1019.26 1019.81 1020.37 1020.87 1021.27 1021.57 1021.78 1021.93 1022.07 1022.23 1022.41 1022.61 1022.81 1022.99 1023.13 1023.21 1023.25 1023.26 1023.27 1023.28 1023.32 1023.38 1023.46 1023.54 1023.62
1017.98 1018.97 1019.74 1020.18 1020.23 1019.89 1019.25 1018.43 1017.59 1016.89 1016.43 1016.26 1016.37 1016.67 1017.07 1017.47 1017.78 1017.97 1018.06 1018.09 1018.13 1018.25 1018.50 1018.88 1019.36 1019.89 1020.42 1020.88 1021.25 1021.53 1021.73 1021.89 1022.05 1022.22 1022.43 1022.65 1022.86 1023.05 1023.18 1023.27 1023.31 1023.33 1023.35 1023.39 1023.45 1023.54 1023.64 1023.75 1023.85
1018.39 1019.24 1019.83 1020.07 1019.94 1019.47 1018.77 1017.96 1017.21 1016.64 1016.33 1016.32 1016.54 1016.92 1017.36 1017.75 1018.03 1018.18 1018.23 1018.24 1018.27 1018.39 1018.64 1019.01 1019.47 1019.97 1020.45 1020.86 1021.19 1021.44 1021.63 1021.80 1021.99 1022.20 1022.44 1022.69 1022.94 1023.14 1023.30 1023.39 1023.45 1023.47 1023.51 1023.55 1023.63 1023.73 1023.84 1023.95 1024.05
1018.66 1019.35 1019.76 1019.83 1019.56 1019.03 1018.32 1017.59 1016.96 1016.55 1016.40 1016.51 1016.82 1017.24 1017.66 1018.01 1018.23 1018.33 1018.34 1018.32 1018.36 1018.49 1018.74 1019.11 1019.55 1020.01 1020.45 1020.81 1021.10 1021.32 1021.51 1021.69 1021.91 1022.17 1022.46 1022.76 1023.04 1023.28 1023.45 1023.56 1023.62 1023.65 1023.69 1023.74 1023.81 1023.91 1024.01 1024.11 1024.19
1018.77 1019.29 1019.54 1019.47 1019.13 1018.58 1017.93 1017.31 1016.84 1016.58 1016.57 1016.77 1017.11 1017.51 1017.88 1018.15 1018.29 1018.32 1018.30 1018.28 1018.33 1018.49 1018.77 1019.15 1019.59 1020.02 1020.41 1020.73 1020.99 1021.19 1021.38 1021.59 1021.85 1022.15 1022.49 1022.84 1023.15 1023.41 1023.59 1023.71 1023.77 1023.80 1023.83 1023.88 1023.94 1024.02 1024.10 1024.18 1024.23
1018.72 1019.10 1019.21 1019.05 1018.67 1018.15 1017.60 1017.11 1016.79 1016.67 1016.76 1017.00 1017.34 1017.68 1017.96 1018.13 1018.18 1018.15 1018.10 1018.09 1018.18 1018.39 1018.71 1019.12 1019.56 1019.99 1020.35 1020.65 1020.87 1021.07 1021.26 1021.50 1021.79 1022.13 1022.51 1022.89 1023.22 1023.48 1023.67 1023.77 1023.82 1023.84 1023.86 1023.89 1023.95 1024.01 1024.07 1024.12 1024.15
1018.58 1018.84 1018.84 1018.62 1018.24 1017.78 1017.33 1016.98 1016.78 1016.77 1016.92 1017.18 1017.47 1017.72 1017.89 1017.95 1017.92 1017.84 1017.78 1017.80 1017.93 1018.19 1018.57 1019.02 1019.48 1019.91 1020.27 1020.55 1020.76 1020.95 1021.16 1021.41 1021.73 1022.09 1022.49 1022.87 1023.20 1023.45 1023.61 1023.70 1023.73 1023.73 1023.74 1023.76 1023.81 1023.86 1023.91 1023.95 1023.96
1018.43 1018.58 1018.50 1018.25 1017.88 1017.49 1017.13 1016.89 1016.81 1016.87 1017.04 1017.27 1017.49 1017.65 1017.71 1017.68 1017.57 1017.46 1017.40 1017.45 1017.63 1017.95 1018.38 1018.87 1019.36 1019.79 1020.15 1020.43 1020.65 1020.85 1021.06 1021.32 1021.65 1022.01 1022.40 1022.76 1023.06 1023.29 1023.42 1023.48 1023.49 1023.48 1023.48 1023.50 1023.54 1023.59 1023.65 1023.68 1023.69
1018.36 1018.41 1018.27 1018.00 1017.65 1017.30 1017.03 1016.87 1016.85 1016.94 1017.11 1017.30 1017.45 1017.52 1017.49 1017.39 1017.24 1017.11 1017.06 1017.13 1017.36 1017.72 1018.18 1018.69 1019.19 1019.64 1020.01 1020.29 1020.52 1020.73 1020.96 1021.22 1021.54 1021.89 1022.25 1022.57 1022.83 1023.01 1023.12 1023.15 1023.14 1023.13 1023.13 1023.16 1023.22 1023.28 1023.35 1023.39 1023.40
1018.43 1018.40 1018.21 1017.91 1017.57 1017.26 1017.03 1016.91 1016.91 1017.01 1017.15 1017.29 1017.38 1017.39 1017.31 1017.17 1017.00 1016.87 1016.83 1016.92 1017.16 1017.53 1017.99 1018.51 1019.01 1019.46 1019.84 1020.14 1020.39 1020.62 1020.85 1021.12 1021.42 1021.74 1022.05 1022.33 1022.55 1022.69 1022.76 1022.78 1022.78 1022.78 1022.80 1022.85 1022.93 1023.01 1023.09 1023.14 1023.15
1018.65 1018.54 1018.30 1017.98 1017.65 1017.35 1017.13 1017.02 1017.01 1017.08 1017.19 1017.29 1017.34 1017.31 1017.22 1017.07 1016.91 1016.79 1016.76 1016.85 1017.07 1017.42 1017.86 1018.35 1018.83 1019.28 1019.66 1019.99 1020.27 1020.52 1020.77 1021.04 1021.32 1021.60 1021.87 1022.10 1022.28 1022.39 1022.45 1022.47 1022.48 1022.51 1022.56 1022.64 1022.75 1022.86 1022.95 1023.00 1023.01
1018.96 1018.80 1018.53 1018.19 1017.85 1017.54 1017.32 1017.18 1017.13 1017.16 1017.22 1017.28 1017.31 1017.29 1017.22 1017.10 1016.98 1016.88 1016.86 1016.93 1017.12 1017.42 1017.80 1018.24 1018.69 1019.12 1019.52 1019.87 1020.19 1020.47 1020.74 1021.01 1021.27 1021.52 1021.74 1021.93 1022.07 1022.17 1022.23 1022.27 1022.31 1022.38 1022.47 1022.59 1022.72 1022.85 1022.94 1022.99 1022.97
1019.26 1019.08 1018.80 1018.47 1018.13 1017.81 1017.55 1017.36 1017.25 1017.21 1017.23 1017.27 1017.30 1017.32 1017.29 1017.24 1017.18 1017.12 1017.11 1017.16 1017.29 1017.52 1017.83 1018.20 1018.61 1019.03 1019.44 1019.83 1020.18 1020.50 1020.79 1021.06 1021.30 1021.52 1021.70 1021.85 1021.97 1022.06 1022.13 1022.21 1022.29 1022.40 1022.54 1022.69 1022.84 1022.97 1023.06 1023.08 1023.04
1019.46 1019.29 1019.05 1018.74 1018.42 1018.10 1017.80 1017.54 1017.35 1017.24 1017.20 1017.21 1017.26 1017.33 1017.39 1017.43 1017.44 1017.45 1017.45 1017.49 1017.57 1017.73 1017.96 1018.27 1018.64 1019.04 1019.47 1019.88 1020.27 1020.63 1020.94 1021.20 1021.42 1021.60 1021.75 1021.86 1021.96 1022.06 1022.15 1022.26 1022.39 1022.54 1022.71 1022.88 1023.04 1023.17 1023.24 1023.24 1023.16
1019.48 1019.37 1019.20 1018.97 1018.69 1018.37 1018.02 1017.69 1017.41 1017.20 1017.09 1017.08 1017.15 1017.28 1017.44 1017.59 1017.70 1017.78 1017.83 1017.86 1017.92 1018.01 1018.18 1018.43 1018.77 1019.17 1019.60 1020.05 1020.47 1020.85 1021.18 1021.43 1021.62 1021.77 1021.87 1021.95 1022.04 1022.13 1022.24 1022.38 1022.55 1022.73 1022.92 1023.10 1023.25 1023.36 1023.41 1023.39 1023.29
1019.30 1019.30 1019.26 1019.13 1018.92 1018.60 1018.22 1017.80 1017.41 1017.10 1016.90 1016.85 1016.93 1017.13 1017.39 1017.65 1017.89 1018.07 1018.18 1018.24 1018.29 1018.35 1018.48 1018.69 1019.00 1019.39 1019.84 1020.31 1020.76 1021.15 1021.47 1021.71 1021.87 1021.97 1022.03 1022.08 1022.14 1022.23 1022.35 1022.51 1022.69 1022.89 1023.08 1023.25 1023.40 1023.49 1023.52 1023.49 1023.38
1018.97 1019.13 1019.25 1019.25 1019.12 1018.82 1018.39 1017.88 1017.36 1016.92 1016.62 1016.52 1016.60 1016.85 1017.20 1017.59 1017.96 1018.26 1018.46 1018.57 1018.64 1018.70 1018.81 1019.01 1019.30 1019.69 1020.14 1020.62 1021.08 1021.47 1021.78 1021.99 1022.10 1022.16 1022.18 1022.20 1022.24 1022.32 1022.44 1022.60 1022.78 1022.97 1023.15 1023.30 1023.42 1023.50 1023.52 1023.48 1023.39
1018.59 1018.94 1019.23 1019.38 1019.32 1019.04 1018.55 1017.93 1017.28 1016.69 1016.28 1016.09 1016.16 1016.44 1016.88 1017.39 1017.89 1018.31 1018.62 1018.82 1018.94 1019.03 1019.14 1019.33 1019.62 1020.00 1020.45 1020.93 1021.38 1021.76 1022.04 1022.21 1022.29 1022.31 1022.29 1022.28 1022.30 1022.37 1022.48 1022.63 1022.80 1022.96 1023.11 1023.23 1023.32 1023.38 1023.39 1023.37 1023.30
1018.29 1018.82 1019.27 1019.55 1019.56 1019.28 1018.73 1017.99 1017.18 1016.45 1015.90 1015.62 1015.65 1015.95 1016.45 1017.07 1017.69 1018.24 1018.66 1018.95 1019.14 1019.27 1019.41 1019.61 1019.90 1020.27 1020.71 1021.17 1021.60 1021.96 1022.22 1022.36 1022.41 1022.40 1022.37 1022.34 1022.35 1022.40 1022.50 1022.62 1022.76 1022.89 1022.99 1023.07 1023.12 1023.15 1023.17 1023.16 1023.13
1018.14 1018.82 1019.41 1019.78 1019.83 1019.53 1018.90 1018.04 1017.08 1016.20 1015.52 1015.15 1015.12 1015.42 1015.97 1016.66 1017.39 1018.05 1018.58 1018.97 1019.23 1019.42 1019.59 1019.80 1020.09 1020.45 1020.88 1021.32 1021.72 1022.06 1022.29 1022.43 1022.47 1022.45 1022.41 1022.38 1022.39 1022.44 1022.52 1022.62 1022.72 1022.79 1022.84 1022.86 1022.87 1022.87 1022.87 1022.87 1022.87
1018.15 1018.94 1019.62 1020.04 1020.10 1019.75 1019.04 1018.06 1016.98 1015.96 1015.16 1014.70 1014.62 1014.90 1015.47 1016.22 1017.02 1017.77 1018.39 1018.86 1019.20 1019.44 1019.65 1019.88 1020.17 1020.53 1020.94 1021.36 1021.75 1022.06 1022.29 1022.42 1022.47 1022.47 1022.45 1022.44 1022.46 1022.51 1022.57 1022.64 1022.69 1022.71 1022.69 1022.65 1022.60 1022.55 1022.53 1022.54 1022.56
1018.26 1019.10 1019.81 1020.24 1020.27 1019.88 1019.09 1018.02 1016.84 1015.72 1014.84 1014.31 1014.18 1014.43 1015.00 1015.77 1016.62 1017.42 1018.11 1018.65 1019.05 1019.34 1019.59 1019.85 1020.15 1020.51 1020.91 1021.32 1021.70 1022.01 1022.25 1022.39 1022.47 1022.50 1022.51 1022.53 1022.57 1022.62 1022.67 1022.70 1022.70 1022.65 1022.56 1022.44 1022.33 1022.23 1022.18 1022.16 1022.18
1018.34 1019.18 1019.88 1020.27 1020.26 1019.81 1018.97 1017.85 1016.62 1015.46 1014.53 1013.96 1013.80 1014.03 1014.58 1015.35 1016.20 1017.03 1017.76 1018.34 1018.79 1019.14 1019.44 1019.73 1020.05 1020.43 1020.83 1021.24 1021.62 1021.95 1022.20 1022.37 1022.48 1022.55 1022.60 1022.65 1022.70 1022.75 1022.78 1022.77 1022.71 1022.59 1022.43 1022.24 1022.05 1021.90 1021.80 1021.75 1021.74
1018.26 1019.07 1019.71 1020.04 1019.98 1019.50 1018.64 1017.52 1016.29 1015.14 1014.22 1013.65 1013.48 1013.69 1014.21 1014.95 1015.79 1016.61 1017.35 1017.97 1018.46 1018.86 1019.21 1019.55 1019.92 1020.32 1020.75 1021.17 1021.57 1021.91 1022.18 1022.38 1022.52 1022.62 1022.69 1022.76 1022.82 1022.85 1022.86 1022.81 1022.69 1022.50 1022.27 1022.01 1021.76 1021.54 1021.38 1021.29 1021.24
1017.94 1018.67 1019.22 1019.49 1019.38 1018.88 1018.05 1016.98 1015.82 1014.74 1013.89 1013.36 1013.20 1013.39 1013.89 1014.58 1015.38 1016.18 1016.91 1017.54 1018.07 1018.53 1018.94 1019.35 1019.78 1020.23 1020.69 1021.15 1021.56 1021.92 1022.20 1022.41 1022.57 1022.68 1022.76 1022.82 1022.86 1022.88 1022.84 1022.74 1022.57 1022.33 1022.04 1021.72 1021.41 1021.14 1020.93 1020.79 1020.69
1017.36 1017.99 1018.44 1018.63 1018.49 1018.01 1017.23 1016.26 1015.22 1014.27 1013.52 1013.06 1012.93 1013.13 1013.58 1014.23 1014.97 1015.73 1016.44 1017.08 1017.65 1018.17 1018.66 1019.15 1019.65 1020.17 1020.68 1021.16 1021.60 1021.96 1022.24 1022.45 1022.59 1022.68 1022.75 1022.78 1022.79 1022.77 1022.69 1022.54 1022.32 1022.03 1021.70 1021.34 1020.99 1020.68 1020.43 1020.25 1020.11
Thickness
5744 5744 5743 5733 5710 5689 5691 5707 5718 5722 5729 5740 5742 5736 5727 5725 5721 5719 5736 5738 5735 5731 5727 5723 5720 5717 5714 5712 5710 5707 5705 5703 5702 5700 5699 5697 5696 5694 5693 5692 5691 5690 5690 5689 5688 5688 5687 5687 5687
5744 5744 5735 5719 5693 5679 5689 5710 5717 5728 5737 5743 5741 5735 5729 5730 5736 5735 5735 5736 5735 5730 5726 5722 5718 5715 5712 5709 5706 5704 5702 5699 5698 5696 5694 5693 5691 5689 5688 5687 5685 5684 5683 5683 5682 5681 5680 5680 5680
5745 5742 5724 5706 5691 5685 5699 5714 5721 5733 5741 5743 5738 5736 5732 5731 5734 5735 5739 5737 5733 5728 5724 5720 5716 5713 5709 5707 5704 5701 5698 5696 5694 5692 5690 5688 5686 5684 5683 5681 5680 5679 5678 5677 5676 5675 5674 5674 5673
5741 5730 5718 5701 5697 5704 5713 5721 5727 5732 5738 5743 5737 5728 5730 5735 5737 5739 5739 5736 5731 5726 5722 5718 5714 5711 5707 5704 5701 5698 5695 5692 5690 5688 5686 5684 5682 5680 5678 5676 5675 5674 5673 5671 5670 5669 5669 5668 5667
5735 5720 5706 5695 5702 5716 5724 5730 5734 5731 5733 5738 5734 5724 5725 5734 5739 5739 5735 5732 5728 5724 5720 5716 5713 5709 5705 5701 5698 5695 5692 5689 5687 5684 5682 5680 5677 5675 5673 5671 5670 5669 5668 5666 5665 5665 5664 5663 5662
5722 5711 5693 5691 5704 5720 5728 5736 5738 5732 5731 5735 5730 5721 5723 5732 5734 5734 5732 5729 5726 5722 5718 5714 5710 5706 5702 5699 5695 5692 5689 5686 5683 5681 5678 5676 5673 5671 5669 5667 5665 5664 5663 5661 5660 5659 5658 5658 5657
5717 5705 5697 5701 5706 5717 5729 5737 5734 5730 5730 5734 5733 5718 5721 5728 5732 5732 5729 5725 5721 5718 5715 5711 5708 5704 5700 5696 5693 5689 5686 5683 5680 5677 5674 5672 5669 5667 5664 5662 5660 5659 5658 5656 5655 5654 5653 5652 5652
5724 5707 5703 5702 5708 5717 5732 5738 5738 5735 5734 5741 5736 5719 5718 5728 5731 5728 5725 5721 5717 5714 5711 5708 5705 5701 5697 5694 5690 5686 5683 5680 5677 5674 5670 5667 5665 5662 5660 5658 5656 5654 5653 5651 5650 5649 5648 5647 5646
5727 5701 5695 5706 5711 5717 5729 5732 5735 5742 5736 5734 5729 5728 5730 5732 5728 5723 5718 5714 5711 5709 5707 5705 5702 5698 5694 5690 5687 5683 5680 5676 5673 5670 5666 5663 5660 5658 5656 5654 5652 5650 5648 5647 5645 5644 5643 5642 5641
5715 5695 5705 5718 5721 5722 5726 5727 5730 5731 5727 5724 5724 5725 5727 5726 5722 5718 5715 5711 5708 5706 5704 5702 5699 5695 5691 5687 5683 5680 5676 5673 5669 5666 5663 5660 5656 5654 5651 5649 5647 5645 5643 5642 5640 5639 5638 5637 5636
5718 5707 5714 5722 5726 5726 5724 5725 5729 5725 5719 5722 5722 5721 5721 5719 5716 5714 5713 5712 5710 5707 5703 5700 5696 5692 5688 5684 5680 5676 5673 5669 5666 5662 5659 5656 5652 5649 5647 5645 5643 5640 5638 5637 5635 5634 5632 5631 5630
5716 5717 5719 5721 5726 5725 5723 5723 5722 5723 5723 5728 5727 5723 5718 5715 5712 5712 5711 5710 5708 5704 5701 5698 5694 5689 5685 5681 5677 5673 5669 5666 5662 5659 5656 5652 5649 5646 5643 5640 5638 5635 5633 5631 5629 5628 5627 5626 5624
5710 5712 5718 5721 5722 5723 5723 5720 5718 5719 5724 5724 5722 5717 5713 5711 5711 5711 5711 5709 5706 5703 5700 5696 5692 5688 5683 5678 5674 5670 5666 5662 5659 5656 5652 5649 5646 5642 5639 5636 5633 5631 5629 5626 5625 5623 5621 5620 5619
5708 5710 5711 5714 5716 5718 5716 5714 5713 5716 5720 5717 5714 5711 5710 5709 5709 5708 5707 5705 5703 5702 5699 5695 5691 5686 5681 5676 5671 5667 5663 5659 5656 5652 5649 5646 5642 5639 5636 5632 5630 5627 5625 5622 5620 5618 5616 5614 5613
5706 5701 5700 5706 5710 5713 5710 5703 5707 5716 5714 5710 5708 5706 5706 5706 5706 5706 5706 5705 5703 5700 5696 5692 5688 5683 5678 5673 5669 5664 5660 5656 5652 5649 5645 5642 5638 5635 5631 5628 5625 5623 5620 5618 5615 5613 5611 5609 5607
5693 5686 5680 5697 5706 5706 5699 5690 5708 5713 5708 5704 5702 5700 5700 5701 5701 5702 5703 5703 5700 5697 5692 5689 5685 5679 5674 5670 5665 5661 5656 5652 5648 5644 5641 5637 5634 5630 5626 5623 5620 5617 5614 5611 5609 5606 5604 5602 5601
5672 5667 5674 5687 5700 5697 5693 5689 5705 5708 5705 5699 5696 5693 5693 5693 5694 5695 5696 5696 5695 5692 5688 5683 5679 5674 5669 5664 5660 5656 5651 5647 5643 5639 5635 5632 5628 5624 5620 5617 5613 5610 5607 5604 5601 5599 5596 5594 5593
5661 5666 5671 5677 5691 5689 5685 5687 5697 5701 5698 5695 5691 5687 5686 5686 5687 5688 5688 5688 5687 5684 5681 5677 5672 5667 5662 5657 5653 5648 5644 5640 5636 5632 5628 5625 5621 5617 5614 5610 5606 5603 5599 5596 5593 5591 5588 5586 5584
5666 5666 5664 5672 5687 5683 5679 5683 5691 5695 5691 5687 5683 5681 5680 5680 5681 5680 5679 5678 5677 5675 5672 5669 5664 5660 5656 5650 5645 5640 5635 5631 5628 5624 5621 5618 5614 5610 5606 5602 5598 5595 5591 5588 5585 5582 5580 5577 5576
5661 5659 5660 5668 5680 5679 5676 5680 5690 5692 5691 5689 5686 5680 5676 5674 5673 5672 5671 5669 5668 5666 5663 5660 5657 5653 5650 5645 5639 5633 5628 5623 5620 5616 5613 5609 5606 5602 5599 5594 5590 5586 5582 5579 5576 5573 5570 5568 5566
5656 5656 5658 5659 5667 5671 5669 5671 5682 5691 5692 5690 5685 5680 5675 5673 5668 5666 5663 5661 5658 5656 5655 5654 5650 5646 5642 5638 5632 5626 5619 5614 5610 5607 5603 5601 5598 5595 5591 5586 5582 5578 5574 5570 5567 5565 5561 5558 5555
5647 5659 5657 5656 5649 5643 5655 5644 5672 5680 5682 5681 5676 5672 5668 5667 5663 5660 5657 5654 5651 5648 5647 5645 5641 5638 5634 5630 5625 5619 5612 5606 5602 5598 5594 5591 5588 5585 5581 5578 5574 5570 5566 5562 5559 5556 5552 5549 5545
5649 5658 5656 5652 5644 5637 5640 5636 5662 5672 5671 5673 5671 5667 5664 5662 5659 5655 5652 5648 5645 5641 5638 5636 5633 5629 5625 5621 5616 5610 5603 5598 5593 5589 5585 5582 5579 5575 5572 5568 5564 5560 5557 5553 5550 5547 5543 5539 5536
5650 5645 5637 5625 5622 5620 5632 5625 5645 5661 5670 5673 5669 5664 5661 5657 5653 5649 5645 5641 5637 5633 5630 5627 5624 5619 5616 5611 5606 5601 5595 5590 5585 5580 5575 5572 5568 5565 5562 5558 5555 5551 5547 5544 5541 5538 5533 5529 5526
5638 5622 5608 5610 5603 5612 5631 5627 5647 5672 5676 5675 5673 5665 5658 5653 5648 5643 5638 5635 5630 5626 5622 5619 5615 5610 5606 5602 5597 5592 5587 5582 5576 5571 5566 5561 5557 5554 5552 5548 5545 5541 5538 5535 5531 5528 5524 5520 5516
5623 5619 5604 5601 5602 5613 5630 5626 5655 5675 5676 5676 5672 5663 5653 5647 5644 5641 5636 5631 5626 5620 5616 5611 5607 5602 5597 5593 5588 5583 5578 5572 5567 5562 5557 5552 5548 5544 5542 5538 5534 5531 5528 5524 5521 5517 5513 5510 5505
5616 5612 5617 5605 5605 5605 5616 5633 5655 5672 5670 5665 5660 5653 5648 5644 5640 5637 5631 5626 5621 5615 5610 5605 5599 5594 5589 5584 5578 5573 5568 5563 5558 5553 5548 5543 5539 5535 5532 5528 5524 5521 5517 5514 5510 5506 5503 5499 5494
5623 5617 5603 5597 5592 5592 5608 5624 5638 5657 5661 5657 5650 5647 5645 5641 5636 5631 5627 5622 5617 5611 5604 5597 5592 5586 5580 5574 5569 5564 5558 5553 5548 5543 5538 5533 5529 5525 5521 5517 5514 5510 5507 5503 5499 5495 5492 5488 5484
5612 5611 5607 5597 5594 5590 5595 5618 5646 5652 5655 5651 5647 5646 5643 5639 5635 5630 5624 5618 5611 5604 5596 5590 5583 5577 5571 5565 5559 5553 5548 5543 5537 5532 5527 5523 5518 5514 5510 5506 5503 5499 5496 5492 5488 5484 5481 5476 5473
5610 5610 5603 5595 5595 5592 5590 5613 5649 5649 5650 5647 5645 5643 5640 5637 5633 5626 5619 5611 5603 5596 5589 5582 5575 5569 5562 5556 5549 5543 5537 5532 5526 5521 5517 5512 5508 5503 5499 5495 5491 5488 5485 5481 5477 5473 5470 5465 5460